Flag for Paraguay Weather past 2 weeks in Ciudad del Este, Paraguay

Now
70 °F

Snow. Fog.


Feels Like: 70 °F
Forecast: 68 / 91 °F
Wind: 2 mph from Southeast

Location: Foz Do Iguacu Aeroporto

Current Time: Dec 19, 2014 at 5:09:00 AM

Latest Report: Dec 19, 2014 at 4:00 AM


Visibility: 5 mi

Pressure: 29.74 "Hg

Humidity: 100%

Dew point: 70 °F

Location of Ciudad del EsteLocation

Historic Weather in Ciudad del Este — Graph

°F

Ciudad del Este temperature yesterday

Maximum temperature yesterday: 86 °F (at 2:00 PM)
Minimum temperature yesterday: 66 °F (at 4:00 AM)
Average temperature yesterday: 76 °F

Past Weeks' High & Low Weather Summary

 TemperatureHumidityPressure
High93 °F (Dec 7, 1:00 PM)100% (Dec 8, 3:00 PM)30.01 "Hg (Dec 8, 3:00 PM)
Low37 °F (Dec 8, 3:00 PM)38% (Dec 4, 6:00 PM)29.68 "Hg (Dec 9, 5:00 PM)
Average77 °F78%29.85 "Hg
* Reported Dec 4 4:00 AM — Dec 19 4:00 AM, Ciudad del Este, Weather by CustomWeather, © 2014

Note: Actual official high and low records may vary slightly from our data, if they occured in-between our weather recording intervals... More about our weather records

Advertising

Ciudad del Este weather history for previous 24 hours

 ConditionsComfort  
Time TempWeatherWind HumidityBarometerVisibility
4:00 AM
Dec 19
70 °FSnow. Fog.2 mph100%29.74 "Hg5 mi
3:00 AM70 °FClear.2 mph100%29.74 "Hg10 mi
2:00 AM73 °FClear.2 mph94%29.77 "Hg10 mi
1:00 AM73 °FClear.2 mph94%29.80 "Hg10 mi
12:00 AM72 °FClear.No wind100%29.80 "Hg10 mi
11:00 PM
Dec 18
73 °FClear.2 mph94%29.83 "Hg10 mi
10:00 PM73 °FClear.2 mph94%29.80 "Hg10 mi
9:00 PM75 °FClear.2 mph94%29.80 "Hg10 mi
8:00 PM77 °FPassing clouds.2 mph89%29.77 "HgN/A
7:00 PM82 °FScattered clouds.2 mph74%29.77 "HgN/A
6:00 PM84 °FPassing clouds.2 mph70%29.77 "HgN/A
5:00 PM86 °FScattered clouds.2 mph62%29.77 "HgN/A
4:00 PM86 °FScattered clouds.2 mph59%29.80 "HgN/A
3:00 PM86 °FScattered clouds.3 mph55%29.80 "HgN/A
2:00 PM86 °FPartly sunny.3 mph59%29.83 "HgN/A
1:00 PM84 °FPartly sunny.3 mph66%29.83 "HgN/A
12:00 PM82 °FPartly sunny.2 mph70%29.86 "HgN/A
11:00 AM81 °FPartly sunny.2 mph74%29.89 "HgN/A
10:00 AM79 °FScattered clouds.5 mph74%29.89 "HgN/A
9:00 AM75 °FScattered clouds.5 mph83%29.89 "HgN/A
8:00 AM70 °FScattered clouds.5 mph100%29.89 "HgN/A
7:00 AM68 °FFog.2 mph100%N/A1 mi
6:00 AM66 °FLight fog.No wind94%29.86 "HgN/A
5:00 AM66 °FClear.No wind100%29.83 "Hg10 mi
Weather by CustomWeather, © 2014

See weather overviewHow to use our weather pages